FENGYUN 1C DEB, 30336

Orbit data source: Space-Track

FENGYUN 1C DEB, 30336 is space debris in SSO originally from a launch on Mon, 10 May 1999 UTC launched from the Taiyaun Space Center, China (TSC). Fengyun 1C debris stems from the Chinese weather satellite Fengyun-1C, which was intentionally destroyed by a Chinese anti-satellite missile in 2007. This event dramatically increased the amount of space debris, with thousands of trackable fragments posing hazards to satellites and human spaceflight. The Fengyun 1C debris cloud has become a focal point in discussions about space sustainability and the need for international regulations to prevent the creation of new debris.

Loading next visibility...
Identifier
30336, 1999-025AAX
Orbit
SSO
Country
Flag of CNCN / PRC
Related business
Manufacturer
Unknown
Mission
Spacecraft
Bus & Motor
Unknown
Mass
Unknown
Launch date (UTC)
1999-05-10 (27 years ago)
Launch vehicle
Unknown
Launch site
Taiyaun Space Center, China (TSC)
Object type
Payload
Rocket body
Debris
Shape & HBR
Unknown shape, 0.1 m
Radar Cross Section
Medium (>0.1 m² and <1 m²)

Expand to show TLE details & history
Last TLE update: 10 hours ago

TLE from 10 hours ago
0 FENGYUN 1C DEB
1 30336U 99025AAX 26166.62637578  .00000467  00000-0  23942-3 0  9995
2 30336  98.5851 187.1018 0043168 191.4227 295.1353 14.19574329  2226
Epoch: 2026-06-15T15:01Z
TLE epoch observation values (Epoch: 2026-06-15T15:01:58.867Z)
Latitude
53.12065°
Longitude
-110.75735°
Altitude
822.337 km
Speed
7.454 km/s
True Right ascension
01h 14m 35s
True Declination
52° 57' 25"
Sunlit
Object was in daylight at epoch
Visualization orbit readout
Latitude
Unknown
Longitude
Unknown
Altitude
Unknown
Speed
Unknown
Apparent Right ascension
Unknown
Apparent Declination
Unknown
Sunlit
N/A
Visualization observer readout
Local Sidereal Time
11:56:06
Azimuth
Unknown
Elevation
Unknown
Doppler factor
Unknown
Orbital elements
Apogee altitude
855.036 km
Perigee altitude
792.856 km
Semi-major axis
7,202.083 km
Eccentricity
0.00432
Inclination
98.5851°
RAAN
187.1018°
Arg. of periapsis
191.4227°
True anomaly
294.68645°
Mean anomaly
295.1353°
Eccentric anomaly
294.91098°
Mean motion
3.55104 °/min
Orbital period
101.38 mins
BSTAR
0.00023942
Loading maneuver chart data...
Computing Atmospheric mass density...

Documentation

Showing up to 5 results
|